Home > Weather > Fort Worth > Past weeks

Flag for U.S.A. Weather for the Past 2 Weeks in Fort Worth, Texas, U.S.A.

Now
58 °F

Sunny.


Feels Like: 54 °F
Forecast: 37 / 65 °F
Wind: 17 mph from South

Location: Meacham International Airport

Current Time: Feb 7, 2016 at 12:28:11 PM

Latest Report: Feb 7, 2016 at 11:53 AM


Visibility: 10 mi

Pressure: 30.15 "Hg

Humidity: 39%

Dew point: 33 °F

Location of Fort WorthLocation

Historic Weather in Fort Worth — Graph

°F

Fort Worth Temperature Yesterday

Maximum temperature yesterday: 54 °F (at 3:53 PM)
Minimum temperature yesterday: 37 °F (at 5:53 AM)
Average temperature yesterday: 45 °F

High & Low Weather Summary for the Past Weeks

 TemperatureHumidityPressure
High79 °F (Jan 30, 3:53 PM)87% (Jan 25, 3:53 AM)30.51 "Hg (Jan 25, 3:53 AM)
Low32 °F (Jan 27, 6:53 AM)18% (Jan 29, 4:53 PM)29.49 "Hg (Feb 1, 4:53 PM)
Average51 °F52%30.06 "Hg
* Reported Jan 23 10:53 AM — Feb 7 10:53 AM, Fort Worth, Weather by CustomWeather, © 2016

Note: Actual official high and low records may vary slightly from our data, if they occured in-between our weather recording intervals... More about our weather records

Advertising

Fort Worth Weather History for the Previous 24 Hours

 ConditionsComfort  
Time TempWeatherWind HumidityBarometerVisibility
10:53 AM
Sun, Feb 7
55 °FSunny.15 mph47%30.19 "Hg10 mi
9:53 AM49 °FSunny.14 mph61%30.22 "Hg10 mi
8:53 AM42 °FSunny.8 mph76%30.22 "Hg10 mi
7:53 AM37 °FSunny.6 mph82%30.22 "Hg8 mi
6:53 AM36 °FClear.5 mph82%30.22 "Hg10 mi
5:53 AM36 °FClear.7 mph85%30.21 "Hg10 mi
4:53 AM38 °FClear.6 mph79%30.22 "Hg10 mi
3:53 AM39 °FClear.5 mph76%30.23 "Hg10 mi
2:53 AM38 °FClear.8 mph79%30.26 "Hg10 mi
1:53 AM38 °FClear.6 mph79%30.29 "Hg10 mi
12:53 AM39 °FClear.6 mph76%30.31 "Hg10 mi
11:53 PM
Sat, Feb 6
42 °FClear.3 mph71%30.34 "Hg10 mi
10:53 PM43 °FClear.3 mph68%30.34 "Hg10 mi
9:53 PM43 °FClear.5 mph68%30.34 "Hg10 mi
8:53 PM44 °FClear.3 mph65%30.35 "Hg10 mi
7:53 PM46 °FClear.7 mph63%30.34 "Hg10 mi
6:53 PM49 °FClear.3 mph55%30.34 "Hg10 mi
5:53 PM51 °FSunny.3 mph50%30.35 "Hg10 mi
4:53 PM53 °FPartly sunny.No wind48%30.34 "Hg10 mi
3:53 PM54 °FPassing clouds.9 mph49%30.34 "Hg10 mi
2:53 PM51 °FOvercast.6 mph56%30.36 "Hg10 mi
1:53 PM50 °FOvercast.10 mph61%30.37 "Hg10 mi
1:03 PM51 °FPartly sunny.10 mph59%30.38 "Hg10 mi
12:53 PM50 °FScattered clouds.12 mph59%30.38 "Hg10 mi
Weather by CustomWeather, © 2016

See weather overviewHow to use our weather pages